Regional Weather Roundup
Issued by NWS

Home | Current Version | Previous Version | Text Only | Print | Product List | Glossary On
Versions: 1 2 3 4 5 6 7 8 9 10 11 12 13 14 15 16 17 18 19 20 21 22 23 24 25 26 27 28 29 30 31 32 33 34 35 36 37 38 39 40 41 42 43 44 45 46 47 48 49 50
000
ASUS44 KLIX 020410
RWRLA
LOUISIANA WEATHER ROUNDUP
NATIONAL WEATHER SERVICE NEW ORLEANS LA
1100 PM CDT MON SEP 01 2014

NOTE: "FAIR" INDICATES FEW OR NO CLOUDS BELOW 12,000 FEET WITH NO
      SIGNIFICANT WEATHER AND/OR OBSTRUCTIONS TO VISIBILITY.
      SKY/WX - SKY CONDITION AND SIGNIFICANT WEATHER.
      TMP - AIR TEMPERATURE.    DP   - DEWPOINT TEMPERATURE.
      RH  - RELATIVE HUMIDITY.  PRES - PRESSURE.
      HX  - HEAT INDEX.         WCI  - WIND CHILL INDEX.

*  THESE STATIONS ARE NOT NWS OR FAA STATIONS AND ARE NOT UNDER
   NWS QUALITY CONTROL.

LAZ040-048-061>063-065-066-069-020500-
SOUTHEAST LOUISIANA

CITY           SKY/WX    TMP DP  RH WIND       PRES   REMARKS
N.O. AUDUBON     N/A     81  78  92 MISG        N/A
N.O. INTL ARPT MOCLDY    81  76  84 SE5       30.03F
N.O. LAKEFRONT MOCLDY    79  74  84 SE5       30.04F
N.O. DOWNTOWN* FAIR      81  73  78 S5        30.04S
SLIDELL        CLOUDY    78  75  90 CALM      30.03F
BATON ROUGE    CLOUDY    79  75  87 SE7       30.01F
BOOTHVILLE     MOCLDY    82  78  88 SE3       30.05F
BELLE CHASSE   MOCLDY    82  76  81 S7        30.03F
BOGALUSA*      FAIR      79  74  84 S5        30.05F
GALLIANO*      NOT AVBL
NEW ROADS*     FAIR      78  76  94 SE3       30.01F
GONZALES*        N/A     80  79  98 CALM      30.02F
HAMMOND*       MOCLDY    77  73  88 SE3       30.04F
HOUMA*         MOCLDY    77  73  87 CALM      30.03F
PORT FOURCHON* PTCLDY    84  75  74 S7        30.06R

$$

LAZ041-044-053-054-020500-
SOUTHWEST LOUISIANA

CITY           SKY/WX    TMP DP  RH WIND       PRES   REMARKS
LAKE CHARLES   CLEAR     79  77  94 S7        29.98F
LAFAYETTE      PTCLDY    78  76  93 VRB3      30.00F
PATTERSON        N/A     77  75  94 CALM      30.05F
SALT POINT       N/A     85  79  82 VRB3      30.01F HX  98
NEW IBERIA     PTCLDY    79  76  90 S7        30.01F
CHENAULT AIRPK CLEAR     79  75  88 SE6       29.99F

$$

LAZ027-028-020500-
CENTRAL LOUISIANA

CITY           SKY/WX    TMP DP  RH WIND       PRES   REMARKS
FORT POLK      CLEAR     78  76  93 S7        29.98F
ALEXANDRIA INT PTCLDY    78  75  90 SE8       29.98S
ALEXANDRIA     PTCLDY    78  74  87 S8        29.99F

$$

LAZ001-002-020500-
NORTHWEST LOUISIANA

CITY           SKY/WX    TMP DP  RH WIND       PRES   REMARKS
SHREVEPORT     CLEAR     81  75  82 S12       29.93F
BARKSDALE AFB  CLEAR     80  76  86 S14       29.94F
DTN SHREVEPORT CLEAR     81  76  84 S14G20    29.94S

$$

LAZ014-016-020500-
NORTHEAST LOUISIANA

CITY           SKY/WX    TMP DP  RH WIND       PRES   REMARKS
MONROE         CLEAR     79  74  84 S6        29.98F
TALLULAH       PTCLDY    77  74  90 S7        30.00S

$$



USA.gov is the U.S. government's official web portal to all federal, state and local government web resources and services.